Content
SEND FEEDBACK

Daily
Averages
Monthly
Summary
United States of America

TAMUNING, GUAM


Home > North America > United States > Guam
Elevation: 250 feet     Latitude: 13 29N     Longitude: 144 47E

WEATHER
 
SELECT A DAY
Number of Records: 352,394;   Date Range: 1/1/95 - 10/29/14
 
SHARE

PRINT THIS DATA

[ ← Previous Day ]
WEATHER ALMANAC - AUGUST 21, 2013
[ Next Day → ]
[ °C ]   °F
Weather ElementAverageHighLow
Temperature78.9 °F82.8 °F (2:55 pm)75.2 °F (9:21 am)
Dewpoint75.8 °F77.4 °F (1:55 pm)73.4 °F (9:21 am)
Humidity90.4 %100 % (9:00 am)79 % (4:12 pm)
Barometer29.78 in29.84 in (9:06 am)29.71 in (3:55 pm)
Wind Speed9.5 mph17.3 mph (9:00 am)
Wind Gust20.7 mph (9:10 am)
Weather ElementAverage
Visibility7.8 mi
Wind DirectionENE (66.9 °)

Weather ElementTotal
Precipitation1.39 in
Cooling Degree Days14 (Base 65)
Growing Degree Days29 (Base 50)
Averaged from 105 records on August 21, 2013
WEATHER CONDITIONS BREAKOUT
WIND DIRECTION BREAKOUT
WEATHER BY HOUR - AUGUST 21, 2013
[ °C ]   °F
Local TimeTemperatureDewpointHumidityBarometerVisibilityWind DirectionWind SpeedGust SpeedPrecipitationEventsConditions
1:51 AM80.6 °F77.0 °F89 %29.77 in5.0 miEast (80°)12.7 mphRainLight Rain
1:53 AM80.6 °F77.0 °F89 %29.76 in2.5 miESE (110°)8.1 mphRainHeavy Rain
1:55 AM79.7 °F75.7 °F88 %29.77 in2.5 miESE (110°)6.9 mph0.09 inRainHeavy Rain
2:01 AM78.8 °F77.0 °F94 %29.76 in3.0 miENE (60°)9.2 mphRainLight Rain
2:04 AM78.8 °F77.0 °F94 %29.76 in9.0 miENE (70°)11.5 mphMostly Cloudy
2:15 AM80.6 °F75.2 °F84 %29.76 in10.0 miEast (80°)13.8 mphMostly Cloudy
2:16 AM80.6 °F75.2 °F84 %29.76 in10.0 miEast (80°)13.8 mphMostly Cloudy
2:18 AM80.6 °F75.2 °F84 %29.76 in10.0 miEast (80°)11.5 mphScattered Clouds
2:55 AM80.1 °F76.1 °F88 %29.76 in10.0 miEast (90°)10.4 mph0.00 inScattered Clouds
3:34 AM80.6 °F77.0 °F89 %29.75 in10.0 miEast (100°)8.1 mphMostly Cloudy
3:55 AM80.2 °F75.7 °F86 %29.76 in10.0 miEast (80°)10.4 mphMostly Cloudy
3:59 AM80.6 °F75.2 °F84 %29.76 in10.0 miENE (70°)12.7 mphScattered Clouds
4:11 AM80.6 °F77.0 °F89 %29.75 in7.0 miEast (100°)12.7 mphRainLight Rain
4:21 AM80.6 °F75.2 °F84 %29.75 in9.0 miEast (80°)9.2 mphPartly Cloudy
4:35 AM80.6 °F77.0 °F89 %29.75 in10.0 miEast (100°)8.1 mphMostly Cloudy
4:38 AM80.6 °F77.0 °F89 %29.75 in10.0 miEast (100°)8.1 mphScattered Clouds
4:55 AM79.5 °F76.6 °F91 %29.76 in10.0 miEast (90°)9.2 mph0.01 inPartly Cloudy
5:55 AM79.0 °F75.9 °F90 %29.77 in10.0 miEast (90°)5.8 mphClear
6:55 AM77.9 °F75.7 °F93 %29.78 in10.0 miNorth (10°)4.6 mphClear
7:55 AM80.2 °F76.6 °F89 %29.79 in10.0 miNorth (10°)4.6 mphClear
8:43 AM80.6 °F77.0 °F89 %29.81 in10.0 miNorth (10°)8.1 mphThunderstormThunderstorm
8:49 AM80.6 °F77.0 °F89 %29.81 in10.0 miNNE (30°)15.0 mphThunderstormThunderstorm
8:55 AM78.8 °F76.6 °F93 %29.82 in5.0 miNE (40°)15.0 mph0.03 inRain-ThunderstormHeavy Thunderstorms and Rain
8:57 AM78.8 °F77.0 °F94 %29.82 in3.0 miNE (40°)12.7 mphRain-ThunderstormHeavy Thunderstorms and Rain
8:58 AM78.8 °F77.0 °F94 %29.82 in3.0 miNE (40°)11.5 mphRain-ThunderstormHeavy Rain
8:59 AM78.8 °F77.0 °F94 %29.82 in2.5 miNE (40°)13.8 mphRain-ThunderstormHeavy Rain
9:00 AM77.0 °F77.0 °F100 %29.82 in2.0 miNNE (30°)17.3 mphRain-ThunderstormHeavy Rain
9:01 AM77.0 °F77.0 °F100 %29.83 in1.8 miNNE (20°)17.3 mphRain-ThunderstormHeavy Rain
9:02 AM77.0 °F77.0 °F100 %29.83 in1.2 miNNE (30°)15.0 mphRain-ThunderstormHeavy Rain
9:03 AM77.0 °F77.0 °F100 %29.83 in1.0 miNNE (30°)15.0 mphRain-ThunderstormHeavy Rain
9:06 AM77.0 °F75.2 °F94 %29.84 in0.8 miNNE (20°)6.9 mph17.3 mphRain-ThunderstormHeavy Rain
9:09 AM77.0 °F75.2 °F94 %29.84 in0.5 miNE (50°)13.8 mph19.6 mphFog-Rain-ThunderstormHeavy Rain
9:10 AM77.0 °F75.2 °F94 %29.84 in0.5 miNE (50°)15.0 mph20.7 mphFog-RainHeavy Rain
9:21 AM75.2 °F73.4 °F94 %29.83 in0.8 miNE (40°)11.5 mphRainHeavy Rain
9:24 AM75.2 °F73.4 °F94 %29.83 in1.0 miNE (40°)9.2 mphRainHeavy Rain
9:26 AM75.2 °F73.4 °F94 %29.82 in1.2 miNNE (30°)9.2 mphRainHeavy Rain
9:28 AM75.2 °F73.4 °F94 %29.82 in1.8 miNNE (20°)9.2 mphRainHeavy Rain
9:29 AM75.2 °F73.4 °F94 %29.82 in2.0 miNNE (20°)6.9 mphRainHeavy Rain
9:30 AM75.2 °F73.4 °F94 %29.82 in2.5 miNNE (20°)6.9 mphRainHeavy Rain
9:32 AM75.2 °F73.4 °F94 %29.82 in3.0 miNorth (10°)10.4 mphRainHeavy Rain
9:36 AM75.2 °F73.4 °F94 %29.82 in4.0 miNorth (360°)5.8 mphRainRain
9:42 AM75.2 °F73.4 °F94 %29.81 in5.0 miNNW (340°)4.6 mphRainLight Rain
9:43 AM75.2 °F73.4 °F94 %29.81 in5.0 miNNW (340°)4.6 mphRainLight Rain
9:55 AM75.2 °F73.4 °F94 %29.81 in8.0 miNNE (20°)6.9 mph1.08 inRainLight Rain
9:58 AM75.2 °F73.4 °F94 %29.81 in5.0 miNNE (20°)5.8 mphRain-ThunderstormLight Thunderstorms and Rain
10:13 AM75.2 °F75.2 °F100 %29.80 in10.0 miCalmRainLight Rain
10:15 AM75.2 °F75.2 °F100 %29.80 in10.0 miVariable4.6 mphPartly Cloudy
10:24 AM77.0 °F75.2 °F94 %29.80 in10.0 miNNE (30°)10.4 mphRainLight Rain
10:28 AM77.0 °F75.2 °F94 %29.80 in9.0 miNE (40°)8.1 mphRainRain
10:40 AM78.8 °F75.2 °F89 %29.80 in10.0 miNE (50°)8.1 mphPartly Cloudy
10:55 AM80.4 °F75.4 °F85 %29.80 in10.0 miNNE (30°)9.2 mph0.03 inPartly Cloudy
11:55 AM80.4 °F76.3 °F87 %29.78 in10.0 miNE (50°)9.2 mphPartly Cloudy
12:22 PM78.8 °F77.0 °F94 %29.77 in10.0 miNE (50°)10.4 mphLight Drizzle
12:38 PM78.8 °F77.0 °F94 %29.77 in10.0 miNE (40°)9.2 mphClear
12:55 PM80.2 °F76.5 °F88 %29.76 in10.0 miNNE (30°)9.2 mph0.00 inPartly Cloudy
1:16 PM82.4 °F77.0 °F84 %29.76 in10.0 miNorth (10°)9.2 mphMostly Cloudy
1:54 PM82.4 °F77.0 °F84 %29.75 in10.0 miNNE (20°)8.1 mphMostly Cloudy
1:55 PM82.0 °F77.4 °F86 %29.75 in10.0 miNNE (20°)8.1 mphMostly Cloudy
1:56 PM82.4 °F77.0 °F84 %29.75 in10.0 miNNE (20°)8.1 mphMostly Cloudy
1:58 PM82.4 °F77.0 °F84 %29.75 in10.0 miNNE (30°)9.2 mphMostly Cloudy
1:59 PM82.4 °F77.0 °F84 %29.75 in10.0 miNNE (30°)9.2 mphMostly Cloudy
2:02 PM82.4 °F77.0 °F84 %29.75 in10.0 miNorth (10°)9.2 mphMostly Cloudy
2:04 PM82.4 °F77.0 °F84 %29.75 in10.0 miNNE (20°)10.4 mphMostly Cloudy
2:09 PM82.4 °F77.0 °F84 %29.74 in10.0 miNNE (20°)9.2 mphMostly Cloudy
2:14 PM82.4 °F77.0 °F84 %29.74 in10.0 miNNE (20°)8.1 mphMostly Cloudy
2:20 PM82.4 °F77.0 °F84 %29.73 in10.0 miNNE (30°)8.1 mphMostly Cloudy
2:24 PM82.4 °F77.0 °F84 %29.73 in10.0 miNorth (10°)8.1 mphMostly Cloudy
2:55 PM82.8 °F76.6 °F82 %29.73 in10.0 miNorth (10°)8.1 mphScattered Clouds
3:55 PM82.4 °F76.3 °F82 %29.71 in10.0 miNE (50°)4.6 mphPartly Cloudy
4:06 PM82.4 °F77.0 °F84 %29.71 in10.0 miENE (70°)8.1 mphMostly Cloudy
4:12 PM82.4 °F75.2 °F79 %29.71 in10.0 miENE (60°)8.1 mphScattered Clouds
4:55 PM81.7 °F76.8 °F85 %29.72 in10.0 miENE (60°)9.2 mphPartly Cloudy
5:55 PM81.0 °F75.6 °F84 %29.74 in10.0 miENE (70°)9.2 mphPartly Cloudy
6:49 PM80.6 °F77.0 °F89 %29.75 in10.0 miNE (40°)10.4 mphRainRain
6:55 PM79.5 °F76.5 °F90 %29.75 in10.0 miNE (40°)10.4 mph0.00 inRainLight Rain
6:58 PM78.8 °F77.0 °F94 %29.75 in10.0 miNNE (30°)10.4 mphPartly Cloudy
7:55 PM78.8 °F76.5 °F92 %29.75 in10.0 miENE (70°)5.8 mph0.00 inPartly Cloudy
8:55 PM79.9 °F75.7 °F87 %29.78 in10.0 miEast (80°)8.1 mphMostly Cloudy
9:14 PM80.6 °F75.2 °F84 %29.78 in10.0 miENE (70°)8.1 mphMostly Cloudy
9:15 PM80.6 °F75.2 °F84 %29.78 in10.0 miENE (70°)8.1 mphMostly Cloudy
9:18 PM80.6 °F77.0 °F89 %29.78 in10.0 miENE (70°)9.2 mphMostly Cloudy
9:22 PM80.6 °F75.2 °F84 %29.78 in10.0 miENE (70°)10.4 mphScattered Clouds
9:28 PM80.6 °F77.0 °F89 %29.78 in10.0 miENE (70°)9.2 mphMostly Cloudy
9:44 PM80.6 °F77.0 °F89 %29.78 in10.0 miENE (60°)12.7 mphRainLight Rain
9:47 PM78.8 °F77.0 °F94 %29.78 in10.0 miENE (60°)11.5 mphRainLight Rain
9:53 PM78.8 °F75.2 °F89 %29.79 in10.0 miENE (70°)10.4 mphMostly Cloudy
9:55 PM78.8 °F75.7 °F90 %29.79 in10.0 miENE (60°)12.7 mph0.00 inMostly Cloudy
10:09 PM78.8 °F75.2 °F89 %29.79 in10.0 miENE (60°)11.5 mphRainLight Rain
10:19 PM77.0 °F75.2 °F94 %29.79 in10.0 miENE (70°)9.2 mphPartly Cloudy
10:25 PM77.0 °F75.2 °F94 %29.79 in9.0 miENE (70°)9.2 mphRainLight Rain
10:26 PM77.0 °F75.2 °F94 %29.79 in8.0 miEast (80°)9.2 mphRain-ThunderstormLight Thunderstorms and Rain
10:41 PM77.0 °F75.2 °F94 %29.79 in3.0 miESE (120°)10.4 mphRainHeavy Rain
10:49 PM77.0 °F75.2 °F94 %29.79 in8.0 miESE (120°)9.2 mphScattered Clouds
10:55 PM77.4 °F75.7 °F95 %29.78 in10.0 miESE (120°)12.7 mph0.10 inScattered Clouds
10:57 PM77.0 °F75.2 °F94 %29.78 in10.0 miSE (130°)12.7 mphMostly Cloudy
10:59 PM77.0 °F75.2 °F94 %29.78 in10.0 miSE (130°)11.5 mphMostly Cloudy
11:02 PM77.0 °F75.2 °F94 %29.78 in10.0 miSE (130°)10.4 mphMostly Cloudy
11:06 PM77.0 °F75.2 °F94 %29.78 in10.0 miSE (130°)9.2 mphMostly Cloudy
11:19 PM77.0 °F75.2 °F94 %29.78 in10.0 miESE (120°)9.2 mphRainLight Rain
11:34 PM77.0 °F75.2 °F94 %29.78 in8.0 miESE (110°)8.1 mphRainLight Rain
11:39 PM77.0 °F75.2 °F94 %29.78 in9.0 miESE (110°)6.9 mphRainLight Rain
11:49 PM77.0 °F75.2 °F94 %29.78 in9.0 miESE (120°)6.9 mphRainLight Rain
11:50 PM77.0 °F75.2 °F94 %29.78 in8.0 miESE (120°)6.9 mphRainRain
11:55 PM77.2 °F75.4 °F94 %29.78 in7.0 miSE (130°)8.1 mph0.05 inRainRain
11:58 PM77.0 °F75.2 °F94 %29.78 in7.0 miSE (130°)6.9 mphRainLight Rain
Hourly data recorded from PGUA, located miles away from Tamuning, Guam







STORIES FROM OUR PARTNERS